Torna al catalogo

STARLINK-37066

AttivoComunicazioniVLEO
NORAD 68081·PAYLOAD·🇺🇸 United States

Lanciato Mar 4, 2026 da Vandenberg Space Force Base

Loading…

Prossimi Passaggi (prossime 24 ore)

TLE

AggiornatoSource: CelesTrak SupGP

Epoca: Sep 15, 2026, 02:47 UTC

1 68081C 26042N   26258.11645833  .00047978  00000+0  14177-2 0  2585
2 68081  53.1595  13.1647 0001054  94.4091  35.4607 15.34363510    19

Traccia STARLINK-37066 in tempo reale con AllMySat

Download on the App Store